Location: Cisewo
(53.3833°N, 14.9000°E)
Time: 11:50:56
(UTC+00:00)

ATLAS 5 CENTAUR R/B - Pass Details

Date: 18 April 2021
Orbit: 516 x 1141 km, 63.3° (Epoch: 02 May)

Event Time Altitude Azimuth Distance (km) Brightness Sun altitude
Rises 19:18:46 0° 257° (WSW) 2,740 5.5 -10.3°
Reaches altitude 10° 19:20:58 10° 265° (W) 1,904 4.9 -10.6°
Maximum altitude 19:24:59 38° 335° (NNW) 976 3.2 -11.1°
Drops below altitude 10° 19:29:38 10° 44° (NE) 2,215 4.3 -11.6°
Sets 19:32:23 0° 52° (NE) 3,253 5.1 -11.9°
